Location: Trois-Rivi�res
(46.3500°N, 72.5500°W)
Time: 06:15:49
(UTC-04:00)

Tiangong 2 - Pass Details

Date: 16 October 2017
Orbit: 388 x 391 km, 42.8° (Epoch: 21 October)

Event Time Altitude Azimuth Distance (km) Brightness Sun altitude
Exits shadow 04:40:46 18° 112° (ESE) 1,045 3.8 -26.2°
Drops below altitude 10° 04:41:46 10° 105° (ESE) 1,420 4.7 -26.0°
Sets 04:43:54 0° 99° (E) 2,276 6.0 -25.7°
